Date,TemperatureHighF,TemperatureAvgF,TemperatureLowF,DewpointHighF,DewpointAvgF,DewpointLowF,HumidityHigh,HumidityAvg,HumidityLow,PressureMaxIn,PressureMinIn,WindSpeedMaxMPH,WindSpeedAvgMPH,GustSpeedMaxMPH,PrecipitationSumIn
2013-1-1,43.1,41.0,38.5,31.0,27.5,22.4,70,59,49,30.01,29.90,5,1,10,0.00
2013-1-2,38.1,34.3,29.9,28.8,20.3,13.9,69,57,47,30.23,29.99,6,2,18,0.00
2013-1-3,39.0,31.7,26.2,22.3,17.8,14.0,67,56,43,30.25,30.15,6,1,10,0.00
2013-1-4,44.1,36.1,27.6,22.6,20.9,19.8,74,55,41,30.20,30.10,10,3,17,0.00
2013-1-5,45.1,38.3,30.8,31.4,22.6,19.2,76,53,41,30.37,30.15,8,2,17,0.00
2013-1-6,51.2,43.2,32.0,32.3,29.6,28.1,89,61,42,30.18,30.02,5,1,13,0.00
2013-1-7,45.9,41.2,30.5,30.9,27.3,25.0,80,58,47,30.43,30.14,9,2,15,0.00
2013-1-8,54.7,41.2,30.4,35.0,31.1,25.2,81,69,45,30.41,30.36,9,1,16,0.00
2013-1-9,52.4,43.2,33.6,43.5,36.7,31.1,92,79,47,30.37,30.23,4,1,14,0.00
2013-1-10,54.2,48.5,43.7,32.4,29.6,27.7,59,48,38,30.59,30.38,8,2,16,0.00
2013-1-11,44.4,41.8,37.0,41.8,35.4,29.1,96,79,59,30.49,30.10,4,1,9,0.03
2013-1-12,55.4,45.7,41.9,47.6,43.2,40.8,97,91,74,30.17,30.09,4,1,6,0.00
2013-1-13,55.0,48.5,42.3,54.7,47.8,41.4,99,98,96,30.14,29.97,3,1,6,0.02
2013-1-14,60.7,53.9,40.4,58.6,47.9,37.1,99,81,64,30.29,29.95,7,2,20,0.13
2013-1-15,40.0,38.8,35.7,38.3,37.0,34.1,96,94,88,30.34,30.15,5,2,12,0.85
2013-1-16,41.1,37.7,34.6,39.5,36.3,33.3,95,95,93,30.15,29.85,6,2,15,0.32
2013-1-17,43.1,41.3,38.2,40.6,33.8,29.3,96,76,59,30.12,29.98,5,1,12,0.02
2013-1-18,38.1,34.5,30.7,30.5,19.0,9.7,74,54,36,30.49,30.08,9,3,17,0.00
2013-1-19,54.3,41.9,32.0,30.4,27.0,22.3,74,57,39,30.40,29.98,10,5,19,0.00
2013-1-20,58.5,46.5,36.5,32.2,23.3,9.2,66,43,20,30.07,29.82,16,4,25,0.00
2013-1-21,47.4,36.8,30.5,28.3,19.8,11.7,56,50,42,30.09,29.78,11,3,22,0.00
2013-1-22,30.2,21.2,17.5,12.1,0.1,-4.0,49,39,29,30.29,29.92,17,6,26,0.00
2013-1-23,25.2,20.3,14.0,12.0,1.9,0.0,63,45,33,30.35,30.15,8,2,17,0.00
2013-1-24,26.2,21.5,17.3,16.3,9.5,1.4,87,62,34,30.51,30.09,10,3,23,0.00
2013-1-25,22.8,20.2,17.7,17.1,7.8,1.2,86,60,40,30.51,30.08,9,2,13,0.00
2013-1-26,23.1,22.9,22.2,18.2,18.1,17.2,82,82,81,30.43,30.09,3,2,7,0.00
2013-1-27,22.9,22.9,22.9,18.2,18.2,18.2,82,82,82,30.58,30.44,2,2,0,0.00
2013-1-28,22.9,22.9,22.9,18.2,18.2,18.2,82,82,82,30.47,30.04,2,2,0,0.00
2013-1-29,69.8,51.3,22.9,53.5,43.5,18.2,91,76,56,30.12,29.97,7,1,12,0.00
2013-1-30,70.7,62.7,56.6,62.1,57.4,51.8,97,83,73,29.96,29.25,13,5,23,0.86
2013-1-31,62.8,44.9,31.0,61.6,30.2,12.4,96,59,37,29.91,29.14,15,7,33,0.44
2013-2-1,31.8,27.0,19.4,19.9,10.5,3.8,71,50,38,30.38,29.80,19,4,31,0.00
2013-2-2,19.2,17.0,16.7,5.3,4.2,3.9,58,57,51,30.39,30.02,7,2,19,0.00
2013-2-3,16.7,16.7,16.7,4.1,4.1,4.1,57,57,57,30.01,29.81,2,2,0,0.00
2013-2-4,35.7,27.7,16.7,22.3,13.4,4.1,59,55,46,30.10,29.89,10,2,14,0.00
2013-2-5,40.9,36.4,31.4,28.7,25.9,22.4,73,66,57,29.93,29.85,4,1,7,0.00
2013-2-6,45.6,38.5,32.8,30.9,27.0,22.4,81,64,47,30.34,29.93,7,2,20,0.00
2013-2-7,39.5,34.6,28.7,30.0,24.8,21.4,77,67,58,30.44,30.21,8,2,13,0.00
2013-2-8,41.7,36.8,32.3,37.5,32.1,22.7,95,84,59,30.18,29.73,14,3,31,0.15
2013-2-9,40.3,34.5,29.4,22.9,18.6,15.9,67,53,38,30.38,29.90,18,6,35,0.00
2013-2-10,37.8,25.3,24.0,26.7,15.8,15.3,69,67,53,30.47,30.25,2,0,6,0.00
2013-2-11,52.9,44.7,37.8,50.0,39.7,28.0,95,83,67,30.24,29.70,6,2,16,0.00
2013-2-12,58.3,49.7,41.9,32.7,29.1,26.8,62,46,33,29.98,29.78,10,3,20,0.00
2013-2-13,46.2,38.7,33.6,36.7,30.3,26.0,94,73,57,29.95,29.65,8,2,12,0.25
2013-2-14,50.4,39.9,33.0,32.7,29.5,26.6,94,69,40,30.01,29.76,8,2,13,0.00
2013-2-15,59.5,44.7,35.1,37.2,33.1,29.6,92,68,33,30.02,29.88,12,3,24,0.09
2013-2-16,38.4,35.8,31.7,34.7,29.1,17.0,94,78,52,30.00,29.83,10,2,16,0.01
2013-2-17,30.9,27.8,24.5,17.5,11.2,4.9,63,50,36,30.19,29.83,21,6,31,0.00
2013-2-18,42.6,31.1,21.7,18.3,10.3,6.9,55,43,27,30.38,30.17,9,3,16,0.00
2013-2-19,44.3,39.6,36.0,40.8,30.0,18.7,90,70,47,30.16,29.73,11,4,21,0.10
2013-2-20,38.4,33.3,25.1,23.2,15.6,9.3,56,48,39,30.16,29.84,14,4,26,0.00
2013-2-21,38.4,30.2,24.1,17.7,14.1,8.9,60,51,40,30.32,30.13,8,4,21,0.00
2013-2-22,33.1,31.4,29.4,30.3,22.8,16.8,91,71,55,30.37,30.22,5,2,12,0.03
2013-2-23,44.8,38.3,32.5,43.1,36.8,30.8,96,95,93,30.20,29.80,5,1,11,0.06
2013-2-24,51.2,42.5,33.5,41.1,31.5,19.1,94,68,38,30.10,29.79,14,4,24,0.00
2013-2-25,48.0,38.0,30.1,26.5,22.9,19.4,69,55,40,30.21,30.10,6,2,19,0.00
2013-2-26,43.7,37.7,31.6,42.5,33.2,24.6,96,84,71,30.22,29.60,17,4,25,0.82
2013-2-27,55.0,47.3,39.7,43.5,38.5,33.4,97,74,48,29.69,29.51,9,2,16,0.01
2013-2-28,47.4,43.4,40.6,36.7,30.3,24.9,81,61,42,29.72,29.62,10,3,18,0.01
2013-3-1,43.4,40.6,36.6,30.7,28.2,25.5,68,61,51,29.88,29.72,9,3,16,0.00
2013-3-2,36.8,33.5,30.4,23.9,22.1,20.4,69,63,53,29.88,29.81,15,4,17,0.00
2013-3-3,40.9,33.7,28.4,22.3,19.6,16.7,72,57,42,29.90,29.79,10,4,23,0.00
2013-3-4,43.5,34.8,28.8,19.1,17.2,14.3,62,49,35,30.03,29.90,15,4,25,0.00
2013-3-5,51.6,40.6,31.5,30.2,19.9,12.6,73,45,21,30.07,29.83,11,3,15,0.00
2013-3-6,39.0,34.9,32.6,36.1,32.9,30.2,96,93,76,29.98,29.59,20,6,30,0.64
2013-3-7,48.6,42.0,35.2,32.3,28.7,26.1,78,60,42,30.14,29.98,11,4,29,0.00
2013-3-8,48.4,42.2,35.6,29.0,27.6,25.2,71,57,46,30.25,30.12,17,5,25,0.00
2013-3-9,60.8,46.9,34.6,29.0,25.7,23.0,66,46,24,30.34,30.24,5,2,16,0.00
2013-3-10,63.5,49.4,35.6,33.7,26.0,15.9,74,45,16,30.32,30.20,8,2,16,0.00
2013-3-11,60.4,50.9,42.8,49.7,44.2,35.9,90,78,66,30.24,29.95,9,3,18,0.00
2013-3-12,57.5,53.7,42.6,55.5,45.6,31.6,96,75,55,29.94,29.67,10,4,21,0.73
2013-3-13,49.5,41.7,33.2,31.6,26.0,18.8,79,55,30,30.05,29.89,12,3,22,0.00
2013-3-14,45.1,37.7,31.6,20.7,16.9,14.1,59,43,30,30.12,30.02,12,6,26,0.00
2013-3-15,57.4,44.4,31.5,33.3,23.8,17.9,63,45,30,30.09,29.77,11,3,20,0.00
2013-3-16,60.4,49.0,40.3,49.8,37.2,33.0,82,64,50,29.89,29.62,9,2,16,0.03
2013-3-17,41.0,38.2,34.0,33.9,30.0,26.2,85,73,59,30.25,29.89,6,1,12,0.00
2013-3-18,38.2,36.2,31.6,35.9,29.7,22.4,95,79,55,30.31,29.89,8,3,17,0.36
2013-3-19,58.6,45.7,36.4,38.4,29.5,7.9,95,63,14,29.90,29.71,13,4,34,0.00
2013-3-20,51.6,44.6,36.0,22.5,13.7,8.3,44,29,21,29.98,29.76,12,4,29,0.00
2013-3-21,41.3,33.8,29.4,27.4,16.0,8.1,81,49,35,29.90,29.75,13,4,20,0.00
2013-3-22,47.1,36.5,28.3,20.5,16.2,10.6,53,44,33,29.99,29.88,16,4,25,0.00
2013-3-23,53.7,42.1,31.2,24.4,22.0,19.7,63,46,30,30.03,29.90,10,2,17,0.00
2013-3-24,42.3,37.6,32.5,32.3,24.3,21.0,93,60,45,29.99,29.66,7,2,10,0.04
2013-3-25,37.0,34.4,31.4,34.8,32.5,29.8,96,93,90,29.69,29.51,6,1,10,0.63
2013-3-26,48.6,41.4,33.4,35.0,30.6,25.5,94,68,41,29.97,29.70,10,3,17,0.03
2013-3-27,48.3,43.0,37.4,29.5,28.1,24.7,68,56,42,30.11,29.98,16,4,20,0.00
2013-3-28,47.1,42.5,36.0,31.4,28.9,26.1,67,59,48,30.22,30.08,10,3,29,0.00
2013-3-29,55.8,47.5,39.6,32.9,29.9,27.0,67,52,34,30.25,30.14,12,2,17,0.00
2013-3-30,59.8,49.4,39.0,31.3,28.0,22.9,71,46,24,30.21,30.10,6,1,15,0.00
2013-3-31,54.5,48.7,44.0,49.3,40.1,29.2,94,73,52,30.12,29.74,10,2,17,0.02
2013-4-1,64.9,50.8,42.2,46.2,38.0,24.4,100,65,37,29.96,29.72,14,4,26,0.01
2013-4-2,49.0,42.0,36.9,21.6,15.3,12.1,45,34,23,30.16,29.98,15,4,21,0.00
2013-4-3,50.9,41.7,33.4,19.6,15.3,11.8,50,35,22,30.38,30.17,14,4,27,0.00
2013-4-4,49.3,39.5,30.6,35.2,18.7,13.2,89,45,26,30.40,30.09,7,2,14,0.08
2013-4-5,64.9,49.9,37.6,37.6,31.7,22.1,94,58,24,30.08,29.81,7,2,21,0.22
2013-4-6,56.4,47.7,38.5,30.9,22.0,16.3,58,37,25,30.31,30.04,10,3,14,0.00
2013-4-7,70.9,54.8,38.8,42.2,36.0,28.2,78,52,32,30.27,29.98,12,4,22,0.00
2013-4-8,80.7,68.8,54.3,50.9,45.7,41.5,66,45,29,30.06,29.93,8,2,17,0.00
2013-4-9,86.7,75.8,63.1,55.3,53.0,51.1,65,47,33,30.06,29.92,8,3,16,0.00
2013-4-10,91.0,80.4,68.8,58.1,54.9,52.9,60,43,30,29.95,29.76,8,3,17,0.00
2013-4-11,87.1,73.6,56.1,60.1,57.1,52.2,87,59,34,29.85,29.70,11,3,25,0.00
2013-4-12,73.2,60.4,51.9,66.6,57.5,50.2,98,91,78,29.79,29.55,7,3,23,0.41
2013-4-13,70.3,57.5,43.8,52.1,41.1,37.5,89,57,31,29.92,29.73,10,3,18,0.00
2013-4-14,67.8,57.5,44.4,45.7,39.7,36.4,78,54,34,30.12,29.93,11,2,15,0.00
2013-4-15,62.9,58.4,55.3,51.2,47.3,44.2,80,67,61,30.27,30.11,6,2,11,0.00
2013-4-16,76.3,63.8,54.3,59.5,54.5,48.1,85,73,53,30.29,30.10,8,3,16,0.00
2013-4-17,79.0,67.4,60.2,62.1,59.2,55.4,96,76,54,30.21,30.10,5,1,14,0.01
2013-4-18,78.3,66.2,59.0,64.2,58.9,55.1,95,79,55,30.21,29.99,7,2,17,0.03
2013-4-19,78.5,67.7,51.5,66.0,61.1,48.6,95,81,62,29.98,29.57,13,4,28,0.89
2013-4-20,60.3,53.1,45.9,48.0,31.8,26.1,92,46,30,30.31,29.77,10,3,23,0.01
2013-4-21,55.6,47.7,39.8,31.3,25.5,20.7,58,43,29,30.58,30.32,8,2,12,0.00
2013-4-22,56.1,47.6,37.5,37.7,35.4,32.5,82,64,49,30.56,30.39,7,2,19,0.00
2013-4-23,63.8,51.8,45.6,45.2,41.5,37.0,83,69,50,30.39,30.11,5,1,13,0.00
2013-4-24,78.2,61.4,43.6,56.4,49.5,41.9,94,69,40,30.11,29.78,19,3,23,0.00
2013-4-25,66.3,55.6,45.2,50.3,34.4,27.8,67,47,24,30.28,29.95,14,4,25,0.00
2013-4-26,66.9,56.6,45.1,40.9,36.5,33.0,81,49,30,30.44,30.29,6,1,14,0.00
2013-4-27,72.6,59.5,44.5,44.5,40.2,37.2,84,52,30,30.40,30.27,5,1,13,0.00
2013-4-28,67.2,57.7,46.8,50.4,43.0,36.7,85,60,33,30.28,30.13,9,2,14,0.01
2013-4-29,59.4,55.5,52.0,57.9,53.0,44.1,96,92,63,30.14,30.03,15,2,15,0.26
2013-4-30,58.4,55.8,54.1,56.6,53.7,47.3,100,93,72,30.27,30.07,4,1,12,0.09
2013-5-1,70.6,59.7,49.1,48.7,42.5,36.8,80,56,32,30.40,30.27,7,2,14,0.00
2013-5-2,68.2,56.2,44.9,49.7,45.7,43.0,94,70,46,30.42,30.30,8,1,14,0.00
2013-5-3,68.6,56.2,46.8,48.2,43.5,40.4,91,65,37,30.36,30.29,9,2,17,0.00
2013-5-4,67.7,56.9,47.7,50.4,43.3,40.1,100,63,43,30.32,30.16,10,2,17,0.00
2013-5-5,62.7,53.5,45.7,46.7,42.1,38.5,82,66,48,30.23,30.14,8,2,13,0.00
2013-5-6,61.8,55.1,49.7,57.1,51.1,44.1,94,87,78,30.16,30.04,6,2,13,0.00
2013-5-7,62.3,59.5,57.1,61.4,58.3,55.9,97,96,93,30.05,29.91,5,2,15,0.58
2013-5-8,71.4,60.8,56.3,58.3,56.0,52.6,97,86,55,29.99,29.91,3,1,21,0.03
2013-5-9,73.8,62.4,54.3,64.9,57.4,52.8,97,85,57,29.98,29.91,8,1,12,0.20
2013-5-10,84.9,70.6,55.3,64.0,59.2,54.1,98,72,41,30.00,29.85,6,1,17,0.33
2013-5-11,78.3,67.3,62.3,67.7,63.4,61.8,100,89,60,29.91,29.69,7,2,13,0.50
2013-5-12,63.8,60.4,53.7,62.8,40.6,28.7,97,51,29,30.02,29.73,11,3,24,0.00
2013-5-13,60.3,52.6,44.5,33.9,28.6,22.9,64,41,24,30.14,30.02,8,2,21,0.00
2013-5-14,64.9,53.8,40.6,40.6,32.8,28.7,70,47,30,30.20,30.04,7,1,14,0.00
2013-5-15,86.9,68.7,53.5,64.2,53.7,41.3,75,60,45,30.04,29.67,11,2,16,0.00
2013-5-16,82.6,76.0,67.6,63.7,59.1,54.4,72,56,44,29.90,29.73,9,2,19,0.00
2013-5-17,84.9,73.8,62.0,59.9,54.2,47.4,80,53,30,30.11,29.90,5,1,11,0.00
2013-5-18,97.7,64.1,58.8,59.2,49.6,-99.9,95,77,52,30.22,30.12,6,1,11,0.09
2013-5-19,77.5,65.5,58.7,66.9,62.6,57.5,100,91,70,30.19,30.07,3,1,7,0.02
2013-5-20,82.0,72.1,65.2,69.3,66.7,63.8,96,84,64,30.10,29.96,8,1,10,0.00
2013-5-21,84.7,74.3,68.0,71.3,68.4,66.5,96,83,63,29.98,29.87,7,2,10,0.00
2013-5-22,88.1,78.1,70.0,72.9,70.1,64.4,96,78,59,29.91,29.81,10,3,17,0.00
2013-5-23,82.6,73.5,64.2,68.5,66.8,61.8,92,80,61,29.88,29.73,8,2,17,0.23
2013-5-24,64.2,57.3,49.4,62.4,48.7,35.2,96,74,54,30.13,29.72,13,3,23,0.05
2013-5-25,66.1,55.2,44.3,38.4,35.4,32.7,66,49,32,30.17,30.07,8,3,24,0.00
2013-5-26,73.3,61.7,50.5,40.7,36.7,32.8,58,41,26,30.20,30.11,7,2,17,0.00
2013-5-27,71.3,63.8,51.2,50.1,43.0,38.7,71,48,31,30.27,30.16,4,1,9,0.00
2013-5-28,85.7,68.5,58.7,68.8,59.9,49.7,97,76,52,30.18,30.05,5,1,20,0.98
2013-5-29,89.4,78.0,66.2,70.1,66.5,64.4,98,71,45,30.11,30.05,6,2,16,0.00
2013-5-30,92.7,81.7,70.2,70.2,66.7,63.7,81,62,40,30.16,30.08,6,2,13,0.00
2013-5-31,90.5,80.8,68.0,66.9,65.3,63.5,87,61,43,30.13,30.01,8,2,16,0.00
2013-6-1,92.1,81.8,71.2,70.3,67.0,64.3,85,62,46,30.02,29.90,9,2,17,0.00
2013-6-2,84.5,77.2,68.5,70.3,67.6,64.3,97,74,61,29.90,29.82,16,3,24,0.80
2013-6-3,82.8,73.1,66.7,69.4,66.2,58.3,100,81,57,29.92,29.80,5,1,16,0.33
2013-6-4,76.6,68.4,59.6,57.3,49.2,43.3,73,53,33,30.11,29.93,6,2,12,0.00
2013-6-5,80.4,69.6,55.9,57.3,54.3,50.1,89,61,37,30.16,30.04,10,1,13,0.00
2013-6-6,74.2,67.7,63.2,63.8,60.0,53.6,95,77,63,30.07,29.85,7,2,14,0.39
2013-6-7,69.7,67.8,65.4,69.1,67.1,64.2,100,98,96,29.84,29.57,4,1,14,2.49
2013-6-8,83.2,71.9,65.9,65.9,62.5,59.6,96,74,51,30.06,29.68,8,2,15,0.00
2013-6-9,82.5,73.9,64.4,70.6,65.2,60.1,87,75,59,30.17,30.07,5,1,12,0.00
2013-6-10,78.7,72.1,68.2,75.1,70.3,67.0,100,94,85,30.08,29.77,6,1,21,3.25
2013-6-11,83.2,74.3,65.2,68.5,65.5,63.9,100,76,55,29.83,29.76,8,2,14,0.01
2013-6-12,89.3,79.8,69.2,69.9,65.9,62.4,80,64,45,29.84,29.76,8,2,15,0.00
2013-6-13,87.1,75.3,69.4,73.4,67.5,57.2,94,78,55,29.79,29.46,14,2,26,0.21
2013-6-14,79.4,70.1,59.9,58.0,55.2,50.1,89,61,41,29.95,29.57,10,2,18,0.05
2013-6-15,82.7,74.1,64.8,59.9,56.8,53.9,73,56,38,30.06,29.95,6,1,13,0.00
2013-6-16,84.4,75.5,65.9,68.5,63.8,57.6,82,68,51,30.00,29.86,9,2,18,0.00
2013-6-17,87.2,79.0,72.0,72.0,68.1,64.0,83,70,56,29.94,29.85,8,1,10,0.00
2013-6-18,77.2,71.5,64.8,70.5,67.9,63.6,97,89,77,29.89,29.78,4,0,10,0.51
2013-6-19,80.4,69.8,63.6,64.3,62.5,59.9,97,79,53,30.13,29.87,3,0,9,0.00
2013-6-20,78.9,70.9,61.7,63.3,60.2,53.8,96,71,51,30.25,30.14,6,1,11,0.00
2013-6-21,84.7,72.6,57.5,64.5,55.9,51.1,91,59,32,30.29,30.21,4,1,9,0.00
2013-6-22,87.5,76.1,64.3,68.1,64.9,62.8,96,71,49,30.24,30.12,7,2,14,0.00
2013-6-23,85.8,76.0,69.6,73.3,69.7,66.5,97,82,62,30.17,30.05,5,1,10,1.79
2013-6-24,92.9,78.4,71.5,73.5,70.8,68.3,96,79,47,30.10,30.01,6,2,17,0.01
2013-6-25,92.1,81.9,70.2,72.4,70.2,64.3,94,70,50,30.02,29.87,7,2,19,0.00
2013-6-26,90.5,79.3,70.7,75.8,69.5,65.3,91,73,54,29.90,29.79,6,2,14,0.05
2013-6-27,82.8,74.6,68.9,73.1,70.2,67.4,96,87,72,29.82,29.61,8,2,14,0.00
2013-6-28,87.5,75.1,67.5,72.3,69.4,63.8,97,84,59,29.62,29.48,8,2,28,1.75
2013-6-29,87.8,77.6,66.3,71.9,66.3,62.5,98,72,44,29.67,29.51,6,1,12,0.01
2013-6-30,86.4,78.1,72.6,75.4,73.5,70.7,97,87,64,29.82,29.67,4,1,10,0.11
2013-7-1,83.2,76.3,71.4,74.4,71.8,68.6,96,87,67,29.96,29.83,5,1,13,0.17
2013-7-2,81.3,76.0,73.4,74.2,72.4,71.2,93,89,77,30.15,29.97,6,2,15,0.04
2013-7-3,87.2,77.8,71.2,76.0,72.9,69.8,97,86,69,30.21,30.15,5,2,13,0.29
2013-7-4,89.5,81.1,74.3,74.8,73.0,70.4,95,78,54,30.24,30.15,9,2,17,0.00
2013-7-5,89.1,82.1,74.5,74.7,72.7,71.1,91,75,58,30.21,30.11,13,3,14,0.00
2013-7-6,92.2,83.2,75.6,74.7,73.1,70.5,90,73,55,30.17,30.05,11,3,17,0.00
2013-7-7,90.0,80.5,71.4,75.4,71.9,68.0,94,76,60,30.09,29.98,13,2,17,0.15
2013-7-8,86.1,77.0,70.7,71.9,69.7,67.7,96,80,55,30.09,30.02,6,1,11,0.20
2013-7-9,86.2,78.7,72.3,75.5,71.8,69.1,92,80,66,30.09,29.98,4,1,10,0.00
2013-7-10,88.3,79.4,73.0,76.3,73.9,70.9,95,84,64,30.00,29.84,7,2,20,0.25
2013-7-11,87.7,77.8,72.5,72.6,70.9,68.3,95,81,59,29.90,29.82,5,1,10,0.00
2013-7-12,76.3,69.7,66.5,72.8,67.3,65.0,96,92,83,30.01,29.86,5,1,18,1.78
2013-7-13,86.3,76.7,69.1,74.5,70.6,67.5,96,83,65,30.25,30.01,5,1,9,0.01
2013-7-14,91.1,81.7,73.7,75.7,73.1,69.6,97,77,52,30.32,30.25,4,1,11,0.00
2013-7-15,95.4,84.1,73.3,75.2,72.8,71.1,94,71,50,30.29,30.16,8,1,9,0.00
2013-7-16,96.2,87.2,79.3,75.5,71.7,67.8,79,62,43,30.21,30.14,4,1,11,0.00
2013-7-17,97.1,87.2,78.5,75.3,72.1,68.8,78,63,43,30.19,30.07,6,1,9,0.00
2013-7-18,96.9,87.9,79.1,78.0,75.6,73.1,83,68,50,30.10,29.97,5,2,14,0.00
2013-7-19,95.7,87.7,79.7,78.1,75.8,70.1,84,69,53,29.99,29.85,7,2,16,0.00
2013-7-20,93.0,84.7,77.6,76.4,73.6,70.1,88,71,54,29.88,29.77,11,3,15,0.00
2013-7-21,90.9,81.9,75.8,74.1,71.1,68.0,91,71,52,29.92,29.86,6,2,11,0.00
2013-7-22,83.8,76.9,73.5,75.5,72.8,69.8,93,88,75,29.91,29.75,8,1,11,0.00
2013-7-23,87.1,79.7,73.1,71.8,70.1,67.6,94,74,53,29.76,29.62,8,2,17,0.00
2013-7-24,84.3,78.3,74.7,69.3,65.7,60.5,76,66,51,29.88,29.66,6,2,13,0.00
2013-7-25,81.3,72.2,62.5,63.5,57.5,52.4,77,61,47,30.01,29.89,6,1,10,0.00
2013-7-26,83.6,74.1,63.3,62.8,60.9,58.3,91,66,44,30.08,30.00,6,1,11,0.00
2013-7-27,85.8,74.0,67.9,70.1,67.7,64.2,95,82,59,30.04,29.91,8,1,15,0.42
2013-7-28,85.2,75.2,68.2,71.8,69.2,66.6,95,83,60,29.96,29.87,4,1,10,0.00
2013-7-29,82.4,74.3,66.1,69.8,59.8,54.2,88,63,39,30.14,29.97,3,1,11,0.00
2013-7-30,81.9,74.3,65.5,62.7,59.0,56.5,76,60,46,30.21,30.13,5,1,11,0.00
2013-7-31,80.7,73.5,67.7,69.1,65.7,61.9,95,78,60,30.13,30.01,4,1,16,0.15
2013-8-1,82.8,73.2,67.3,74.1,69.6,66.2,97,89,71,30.01,29.79,4,1,11,0.41
2013-8-2,85.9,77.8,69.3,68.8,65.2,62.3,95,67,47,29.94,29.83,10,2,16,0.00
2013-8-3,80.3,72.8,68.0,68.1,65.7,63.5,93,79,60,29.95,29.90,5,1,11,0.08
2013-8-4,81.8,73.2,65.2,66.1,59.7,53.8,94,66,41,30.01,29.89,7,2,17,0.00
2013-8-5,82.1,72.8,62.8,59.1,55.4,52.4,74,56,39,30.09,30.00,4,1,9,0.00
2013-8-6,72.7,69.6,67.2,67.1,64.7,59.3,93,85,71,30.06,29.99,3,1,10,0.01
2013-8-7,83.7,75.3,68.3,72.5,69.0,66.1,93,82,67,30.06,29.98,11,2,16,0.00
2013-8-8,85.5,79.0,74.0,74.7,72.6,70.5,89,81,67,30.01,29.96,7,2,15,0.00
2013-8-9,90.4,82.8,76.0,75.6,73.6,71.0,91,75,57,29.96,29.83,11,3,19,0.00
2013-8-10,86.5,79.0,73.5,71.0,66.2,56.9,84,67,38,30.06,29.92,5,1,10,0.00
2013-8-11,84.6,77.8,72.5,70.5,67.9,64.8,87,73,52,30.09,29.99,5,1,11,0.00
2013-8-12,90.4,79.9,71.7,72.9,68.6,63.4,92,71,42,30.01,29.90,4,1,11,0.00
2013-8-13,85.5,77.7,70.6,73.8,70.6,66.8,95,80,56,29.89,29.72,9,2,14,0.48
2013-8-14,75.1,68.2,60.0,68.9,53.6,48.7,93,61,45,30.08,29.79,7,2,28,0.00
2013-8-15,79.4,68.6,57.0,57.3,52.1,48.1,81,59,34,30.17,30.07,4,1,10,0.00
2013-8-16,80.3,68.6,56.3,58.7,55.4,53.5,95,66,41,30.18,30.12,4,0,9,0.00
2013-8-17,80.2,70.5,59.9,63.1,58.3,56.0,92,67,46,30.24,30.18,5,1,12,0.00
2013-8-18,72.4,68.2,64.5,65.5,62.8,59.3,93,83,64,30.22,30.15,3,1,8,0.13
2013-8-19,73.6,68.5,61.8,67.0,63.7,60.0,95,85,76,30.17,30.06,7,1,9,0.00
2013-8-20,88.8,76.9,63.9,70.9,67.3,62.4,97,75,47,30.15,30.07,4,1,12,0.00
2013-8-21,89.0,78.6,70.0,72.9,70.8,68.6,100,79,52,30.18,30.06,7,1,12,0.04
2013-8-22,87.3,79.5,70.9,70.6,68.7,66.9,95,72,52,30.07,29.91,6,2,15,0.00
2013-8-23,76.9,72.3,64.2,70.7,65.0,58.4,92,78,65,30.09,29.91,2,1,8,0.24
2013-8-24,83.1,72.6,62.0,64.1,60.0,56.6,91,67,44,30.31,30.10,3,1,10,0.00
2013-8-25,83.5,75.0,64.1,63.6,58.1,53.5,92,58,41,30.37,30.26,4,1,13,0.00
2013-8-26,86.8,75.0,62.9,65.8,60.9,55.9,80,64,42,30.28,30.01,9,2,15,0.00
2013-8-27,90.4,80.3,70.8,72.1,68.5,64.3,81,68,50,29.99,29.86,6,2,15,0.00
2013-8-28,79.7,76.0,72.9,72.8,70.8,67.9,94,85,71,29.90,29.80,8,1,11,0.12
2013-8-29,87.5,76.8,71.1,71.1,69.7,67.1,96,80,55,30.00,29.81,6,1,9,0.00
2013-8-30,86.7,77.6,70.9,71.4,69.2,67.2,92,77,57,30.02,29.88,8,2,14,0.00
2013-8-31,89.5,79.7,71.5,74.5,70.6,67.7,88,75,57,29.90,29.78,10,2,13,0.00
2013-9-1,89.9,76.6,69.7,72.6,69.1,66.9,91,79,55,29.83,29.79,3,1,9,0.00
2013-9-2,89.2,85.3,79.9,73.7,72.2,70.9,81,66,56,29.78,29.70,5,2,11,0.08
2013-9-3,84.7,78.1,70.8,73.9,63.7,56.0,86,63,42,29.94,29.71,9,2,15,0.00
2013-9-4,83.8,72.3,62.8,61.2,55.9,50.8,75,58,33,30.07,29.95,5,1,11,0.00
2013-9-5,84.0,74.6,66.1,63.0,58.5,50.7,78,58,46,30.10,29.99,8,2,15,0.00
2013-9-6,78.3,67.9,58.1,53.9,49.0,44.2,73,53,35,30.24,30.11,8,1,10,0.00
2013-9-7,81.4,68.8,55.5,63.9,58.1,51.6,89,70,49,30.13,29.93,6,1,12,0.00
2013-9-8,87.5,76.8,66.9,66.8,63.2,58.2,87,64,48,30.01,29.85,6,2,12,0.00
2013-9-9,80.1,71.6,63.8,68.1,58.2,49.5,85,63,53,30.18,30.03,5,1,14,0.00
2013-9-10,91.6,80.3,71.6,74.4,71.2,68.0,91,76,54,30.16,30.07,7,2,13,0.00
2013-9-11,93.3,83.8,74.1,75.2,72.5,70.0,91,71,47,30.12,29.99,7,2,16,0.00
2013-9-12,90.4,77.9,70.7,72.9,70.2,67.8,95,79,54,29.98,29.73,4,2,14,0.46
2013-9-13,77.8,71.2,61.9,68.6,59.1,50.6,91,68,40,29.92,29.68,10,3,18,0.00
2013-9-14,70.8,61.2,54.0,50.6,46.9,45.2,76,60,43,30.14,29.92,8,1,14,0.00
2013-9-15,76.8,63.8,50.4,58.4,51.5,47.1,94,67,45,30.22,30.08,9,1,11,0.00
2013-9-16,73.0,65.4,60.3,60.1,57.4,55.1,91,76,57,30.20,30.02,10,1,13,0.03
2013-9-17,70.6,60.3,50.9,55.5,45.9,39.2,83,62,33,30.41,30.21,5,1,10,0.00
2013-9-18,74.2,59.8,47.7,52.2,47.5,43.4,95,68,36,30.33,30.17,3,0,10,0.00
2013-9-19,78.5,65.2,53.5,58.2,54.5,50.6,95,71,48,30.19,30.07,4,1,10,0.00
2013-9-20,80.7,68.7,56.3,61.9,58.6,54.8,95,72,51,30.08,29.94,6,1,12,0.00
2013-9-21,75.2,66.7,61.9,65.7,61.5,57.9,96,84,62,29.96,29.67,7,2,18,1.32
2013-9-22,72.1,65.1,58.5,61.4,55.5,48.5,96,74,50,29.93,29.72,6,1,12,0.00
2013-9-23,67.1,58.8,54.0,48.8,46.2,42.8,80,64,48,30.08,29.93,8,2,14,0.00
2013-9-24,74.0,60.2,50.8,51.2,47.4,44.8,82,64,42,30.10,29.94,6,1,9,0.00
2013-9-25,75.2,61.8,50.2,53.4,47.9,42.4,90,65,32,29.97,29.87,3,0,7,0.00
2013-9-26,76.6,63.9,56.0,54.6,53.1,51.2,88,70,45,30.05,29.91,4,0,10,0.00
2013-9-27,72.4,63.0,54.8,59.6,55.7,52.7,93,78,57,30.23,30.06,3,0,8,0.00
2013-9-28,70.7,62.8,57.4,56.3,54.3,53.1,89,75,56,30.29,30.21,3,0,9,0.00
2013-9-29,76.4,62.1,52.4,57.7,54.3,51.0,96,78,49,30.20,30.05,5,0,10,0.00
2013-9-30,77.0,63.8,52.6,56.3,53.5,50.6,95,72,45,30.08,29.97,4,1,8,0.00
2013-10-1,80.7,68.7,56.4,61.8,58.1,53.8,91,71,47,30.06,29.96,4,1,11,0.00
2013-10-2,85.7,74.2,60.0,63.1,59.8,56.6,91,63,42,30.07,29.98,6,1,13,0.00
2013-10-3,82.9,73.2,62.4,65.1,62.5,58.1,90,70,53,30.10,30.02,5,1,7,0.00
2013-10-4,87.1,74.7,63.2,68.3,64.8,61.7,96,74,48,30.07,29.99,4,1,12,0.00
2013-10-5,89.5,77.6,67.9,67.7,66.1,63.8,89,70,46,30.07,29.98,3,1,8,0.00
2013-10-6,88.4,76.4,67.6,69.1,66.1,64.0,94,72,49,30.00,29.90,13,2,16,0.00
2013-10-7,73.7,66.3,58.0,70.1,62.0,47.8,96,86,69,30.02,29.78,12,2,21,1.25
2013-10-8,67.7,58.8,52.4,49.4,47.3,45.7,79,67,49,30.26,30.03,6,1,13,0.00
2013-10-9,60.8,56.3,53.6,52.4,49.9,47.0,93,80,69,30.30,30.19,8,1,12,0.22
2013-10-10,57.5,55.0,52.7,56.6,53.6,50.7,97,95,93,30.18,29.97,8,2,9,0.82
2013-10-11,61.6,59.1,55.4,61.0,58.3,54.5,98,97,97,29.98,29.92,3,1,11,2.61
2013-10-12,67.2,62.0,60.1,61.3,59.8,58.3,98,93,77,30.14,29.96,5,2,13,0.43
2013-10-13,63.7,60.7,57.6,59.3,57.5,53.7,97,90,80,30.30,30.14,5,1,16,0.02
2013-10-14,71.2,60.8,55.3,56.8,54.3,52.9,93,80,57,30.32,30.21,2,1,9,0.00
2013-10-15,73.7,61.2,51.5,57.6,51.6,44.5,97,75,38,30.23,30.08,3,0,7,0.00
2013-10-16,71.4,64.4,59.7,62.3,60.1,57.8,95,87,72,30.07,29.92,6,1,8,0.00
2013-10-17,76.1,67.0,60.5,65.0,61.9,58.5,97,85,63,29.90,29.71,8,1,19,0.01
2013-10-18,66.9,58.6,50.2,56.0,45.7,42.7,86,64,45,30.00,29.80,6,2,17,0.00
2013-10-19,65.0,56.3,47.4,58.1,50.8,44.6,92,83,62,29.99,29.78,6,1,19,0.00
2013-10-20,63.6,54.9,47.9,48.9,38.9,35.6,76,56,36,30.09,29.85,8,3,16,0.00
2013-10-21,66.8,54.7,43.4,47.0,43.2,39.3,95,68,41,30.14,29.97,5,1,15,0.00
2013-10-22,64.3,56.0,49.2,51.3,46.1,35.3,89,70,49,29.96,29.81,4,1,10,0.00
2013-10-23,57.8,50.6,44.8,42.4,37.5,32.9,89,62,40,29.88,29.64,8,2,15,0.00
2013-10-24,51.2,45.4,41.4,36.9,31.4,27.4,75,59,41,30.12,29.89,13,3,22,0.00
2013-10-25,54.6,45.4,37.6,33.9,31.5,29.5,75,59,44,30.32,30.12,12,2,18,0.00
2013-10-26,56.0,46.1,33.4,33.2,30.0,28.2,84,55,37,30.30,29.94,9,2,19,0.00
2013-10-27,61.5,50.5,43.1,39.4,36.3,32.6,81,59,41,30.13,29.95,13,1,14,0.00
2013-10-28,65.5,51.0,40.6,44.6,39.8,36.2,85,68,41,30.27,30.13,3,0,7,0.00
2013-10-29,65.7,52.4,43.7,46.1,42.5,39.2,88,71,44,30.37,30.26,3,0,6,0.00
2013-10-30,66.8,55.8,50.3,56.6,51.8,46.5,95,87,70,30.31,30.14,5,1,12,0.00
2013-10-31,68.3,61.4,53.8,60.5,57.4,52.3,96,87,75,30.17,29.79,8,2,15,0.00
2013-11-1,75.2,66.9,60.6,62.3,60.2,57.6,92,79,62,29.77,29.58,7,2,18,0.02
2013-11-2,67.9,60.2,51.6,58.2,46.5,38.8,95,62,46,29.87,29.64,8,2,15,0.00
2013-11-3,57.3,49.9,41.7,42.6,33.3,21.6,75,55,26,30.43,29.87,6,2,17,0.00
2013-11-4,46.6,40.0,33.6,28.8,24.0,20.8,69,53,39,30.62,30.44,3,1,11,0.00
2013-11-5,56.9,48.0,36.7,47.8,38.7,28.0,81,70,62,30.60,30.45,3,0,7,0.00
2013-11-6,69.9,58.7,52.4,54.4,50.7,47.7,84,76,57,30.45,30.07,7,1,14,0.00
2013-11-7,61.5,54.3,44.5,55.6,46.1,24.3,94,75,43,30.07,29.87,7,3,21,0.01
2013-11-8,50.8,43.7,36.5,30.5,25.9,23.2,68,50,36,30.31,30.07,13,2,21,0.00
2013-11-9,35.3,31.8,31.3,27.7,27.1,27.0,84,83,73,30.34,30.04,1,0,2,0.00
2013-11-10,62.5,46.6,31.3,37.1,29.7,27.0,84,56,30,30.21,29.94,10,3,23,0.00
2013-11-11,57.4,49.1,38.5,32.7,30.4,27.9,71,49,37,30.30,30.00,9,3,17,0.00
2013-11-12,50.7,41.5,32.3,33.8,23.6,15.2,67,49,40,30.39,29.97,11,3,21,0.00
2013-11-13,42.9,35.8,30.8,21.5,19.5,17.2,63,52,42,30.47,30.39,10,2,19,0.00
2013-11-14,56.1,40.5,29.2,26.6,20.8,15.4,64,47,24,30.39,30.22,6,1,8,0.00
2013-11-15,62.0,46.4,34.2,42.7,29.5,24.8,88,54,28,30.27,30.18,6,1,11,0.03
2013-11-16,52.6,49.6,45.6,49.8,47.6,41.5,96,93,84,30.31,30.23,3,0,6,0.37
2013-11-17,62.8,57.0,51.2,57.8,54.2,50.0,97,91,82,30.22,29.75,7,1,15,0.00
2013-11-18,68.3,61.7,50.9,60.3,41.5,25.7,94,54,21,29.93,29.69,13,4,18,0.00
2013-11-19,50.2,44.5,38.6,28.1,26.6,25.2,61,50,41,30.35,29.93,15,4,24,0.00
2013-11-20,48.5,39.4,35.0,29.1,25.6,23.2,77,58,42,30.55,30.36,4,1,12,0.00
2013-11-21,50.4,42.4,33.5,39.7,34.3,28.9,84,73,62,30.56,30.39,2,0,5,0.00
2013-11-22,61.7,54.1,46.0,54.0,46.7,38.8,83,76,67,30.39,29.99,5,1,14,0.00
2013-11-23,57.4,45.8,32.4,49.5,30.0,15.3,76,55,36,30.18,30.02,14,5,27,0.00
2013-11-24,32.0,27.7,24.5,14.0,6.9,3.5,50,41,34,30.52,30.20,16,5,24,0.00
2013-11-25,24.5,22.2,21.9,8.7,7.6,7.4,54,53,50,30.57,30.35,5,4,12,0.00
2013-11-26,44.9,31.1,21.9,44.1,24.5,7.4,97,78,53,30.34,29.60,7,3,16,1.80
2013-11-27,39.5,36.4,29.6,36.9,31.3,15.8,96,83,56,30.02,29.51,10,4,27,0.44
2013-11-28,38.7,31.6,27.7,23.6,16.5,13.6,70,54,42,30.47,30.04,21,3,22,0.00
2013-11-29,33.4,28.3,27.3,22.7,21.5,21.4,80,76,63,30.71,30.45,0,0,2,0.00
2013-11-30,37.2,32.4,26.9,26.2,22.0,19.4,77,66,50,30.71,30.38,3,0,8,0.00
2013-12-1,32.7,27.5,27.2,25.4,23.2,23.0,85,84,73,30.37,30.02,0,0,0,0.00
2013-12-2,48.1,39.1,27.2,40.7,32.8,23.0,84,78,70,30.01,29.86,3,0,5,0.00
2013-12-3,58.8,47.0,41.9,40.2,37.6,35.2,83,71,50,29.98,29.87,5,1,9,0.00
2013-12-4,56.2,49.4,42.4,49.4,43.7,38.0,89,81,72,30.07,29.98,3,0,5,0.00
2013-12-5,69.4,59.6,52.6,61.2,55.7,49.4,94,87,72,30.06,29.92,13,3,20,0.00
2013-12-6,63.8,51.6,38.7,61.8,49.8,37.1,95,94,92,30.14,29.87,6,3,17,0.84
2013-12-7,41.7,37.3,31.4,36.6,30.4,22.0,94,77,60,30.53,30.12,9,3,17,0.18
2013-12-8,31.3,29.1,27.6,30.0,24.3,19.8,95,83,69,30.58,30.29,5,2,9,0.04
2013-12-9,34.9,32.8,31.5,33.2,31.5,30.0,96,95,93,30.30,30.03,4,0,8,0.08
2013-12-10,37.7,32.7,28.0,33.2,29.2,21.6,97,87,65,30.22,29.98,6,1,16,0.12
2013-12-11,29.8,28.7,26.7,21.5,18.2,17.8,80,64,63,30.40,30.22,4,1,7,0.00
2013-12-12,31.4,28.3,24.2,17.8,14.0,8.4,66,55,41,30.44,30.25,6,2,13,0.00
2013-12-13,41.2,33.3,25.0,23.6,16.4,10.6,73,50,37,30.30,30.21,8,3,14,0.04
2013-12-14,39.8,35.7,33.0,35.7,29.7,23.0,95,79,60,30.31,29.72,5,2,13,0.60
2013-12-15,46.6,37.5,31.3,36.6,29.8,22.8,95,75,55,29.94,29.63,15,3,22,0.00
2013-12-16,36.9,34.7,32.4,26.1,24.7,21.8,73,67,59,30.19,29.94,5,2,11,0.00
2013-12-17,39.1,35.5,32.8,34.0,29.6,25.4,90,79,73,30.16,29.93,5,2,9,0.03
2013-12-18,41.3,34.9,29.7,31.6,25.0,19.6,93,69,47,30.22,29.99,11,2,21,0.00
2013-12-19,60.8,43.5,28.3,31.0,27.1,22.6,81,56,32,30.20,30.07,8,3,12,0.00
2013-12-20,59.2,53.0,45.7,46.4,35.1,29.3,67,51,42,30.10,29.99,9,2,15,0.00
2013-12-21,71.2,61.9,53.9,60.2,51.4,43.1,82,69,57,30.01,29.89,17,5,24,0.00
2013-12-22,69.7,64.0,61.1,62.8,60.2,58.3,95,88,75,30.00,29.82,12,4,23,0.16
2013-12-23,62.6,54.6,39.2,61.7,49.8,28.8,97,85,65,30.22,29.91,13,3,20,0.36
2013-12-24,39.5,34.6,23.6,27.5,20.1,7.2,64,56,41,30.47,30.19,12,5,22,0.00
2013-12-25,23.3,21.1,20.8,10.4,9.6,9.1,61,60,54,30.57,30.39,6,1,15,0.00
2013-12-26,45.3,31.2,20.8,24.5,17.1,9.5,71,56,40,30.38,30.22,5,1,10,0.00
2013-12-27,37.3,34.6,33.3,19.7,18.7,17.8,56,52,45,30.42,30.31,1,0,6,0.00
2013-12-28,57.4,44.6,34.3,29.6,24.3,18.7,65,45,32,30.33,30.12,8,2,14,0.00
2013-12-29,48.1,45.8,42.3,45.2,37.6,28.2,97,76,47,30.10,29.54,8,3,19,0.91
2013-12-30,45.4,39.6,33.4,38.5,31.8,22.3,89,74,62,30.18,29.82,14,3,19,0.00
2013-12-31,44.4,35.3,31.4,29.1,20.9,16.6,70,56,41,30.31,30.10,11,3,27,0.00
2014-1-1,47.6,35.9,27.1,32.1,24.4,17.1,84,64,45,30.41,30.14,6,1,14,0.00
2014-1-2,37.4,33.7,30.6,32.7,30.6,28.3,95,88,82,30.12,29.62,4,1,9,0.04